This demonstration page uses our WeatherBlox Daily Observations layout. Learn more.

Left ArrowRight Arrow

36.19886, -115.1175

Hourly Observations for September 9, 2021

Temp ( °F °C ) Dew Point ( °F °C ) Humidity (%) Winds ( mph kmh ) Pressure ( in mb ) Visibility ( mi km ) Precip ( " mm )
12:53 am 00:53 Clear 90 32.2 45 7.2 21 21 Calm 29.86 1011 10 16 0.00 0.00
1:53 am 01:53 Clear 87 30.6 48 8.9 26 26 NNW 3 6 29.86 1011 10 16 0.00 0.00
2:53 am 02:53 Clear 87 30.6 51 10.6 29 29 W 7 11 29.87 1012 10 16 0.00 0.00
3:53 am 03:53 Clear 85 29.4 51 10.6 31 31 N 3 6 29.88 1012 10 16 0.00 0.00
4:53 am 04:53 Clear 84 28.9 54 12.2 36 36 W 6 9 29.88 1012 10 16 0.00 0.00
5:53 am 05:53 Clear 84 28.9 55 12.8 37 37 WNW 5 7 29.89 1012 10 16 0.00 0.00
6:53 am 06:53 Sunny 84 28.9 55 12.8 37 37 WNW 5 7 29.91 1013 10 16 0.00 0.00
7:53 am 07:53 Sunny 89 31.7 57 13.9 34 34 NNE 3 6 29.92 1013 10 16 0.00 0.00
8:53 am 08:53 Sunny 92 33.3 57 13.9 31 31 E 3 6 29.93 1014 10 16 0.00 0.00
9:53 am 09:53 Sunny 95 35 57 13.9 28 28 SSE 5 7 29.93 1014 10 16 0.00 0.00
10:53 am 10:53 Sunny 98 36.7 57 13.9 25 25 VRB 7 11 29.93 1013 10 16 0.00 0.00
11:53 am 11:53 Sunny 102 38.9 52 11.1 19 19 ESE 7 11 29.90 1013 10 16 0.00 0.00
12:53 pm 12:53 Sunny 104 40 50 10 16 16 SSE 8 13 29.87 1012 10 16 0.00 0.00
1:53 pm 13:53 Sunny 106 41.1 47 8.3 14 14 S 13 20 29.84 1011 10 16 0.00 0.00
2:53 pm 14:53 Sunny 107 41.7 49 9.4 14 14 VRB 7 11 29.81 1010 10 16 0.00 0.00
3:53 pm 15:53 Sunny 106 41.1 49 9.4 15 15 SSE 8 13 29.79 1009 10 16 0.00 0.00
4:53 pm 16:53 Sunny 106 41.1 43 6.1 12 12 SSE 16 26 29.77 1008 10 16 0.00 0.00
5:53 pm 17:53 Sunny 105 40.6 40 4.4 11 11 S 14 22 29.77 1008 10 16 0.00 0.00
6:53 pm 18:53 Sunny 102 38.9 47 8.3 15 15 WSW 7 11 29.79 1009 10 16 0.00 0.00
7:53 pm 19:53 Clear 100 37.8 46 7.8 16 16 S 7 11 29.81 1009 10 16 0.00 0.00
8:53 pm 20:53 Clear 98 36.7 50 10 20 20 WSW 5 7 29.83 1010 10 16 0.00 0.00
9:53 pm 21:53 Clear 94 34.4 50 10 22 22 NNE 6 9 29.85 1011 10 16 0.00 0.00
10:53 pm 22:53 Clear 93 33.9 51 10.6 24 24 NE 5 7 29.86 1011 10 16 0.00 0.00
11:53 pm 23:53 Clear 92 33.3 51 10.6 25 25 WNW 6 9 29.85 1011 10 16 0.00 0.00

Powered by AerisWeather